User: anonymous   Login
Location: Walnut Point State Park
(39.6958°N, 88.0345°W)
Time: 06:22:21
(UTC-05:00)
Language:

ATLAS 3B R/B - Orbit

View from above orbital plane
View from above orbital plane
View from above satellite
View from above satellite

Ground track
Ground track

The orbit data is extracted from the following two-line orbital elements,

1 28538U 05004B   15141.85570535 0.00000080  00000-0  12332-3 0    00
2 28538  63.8190  46.1886 0206000 227.4518 132.5482 13.43061287    05
Epoch (UTC): 21 May 2015 20:32:12
Eccentricity: 0.0206000
inclination: 63.8190°
perigee height: 944 km
apogee height: 1252 km
right ascension of ascending node: 46.1886°
argument of perigee: 227.4518°
revolutions per day: 13.43061287
mean anomaly at epoch: 132.5482°
orbit number at epoch: 0

The dashed part of the orbit path shows where the satellite is in the earth's shadow,  

DLR